Regional Weather Roundup
Issued by NWS

Home | Current Version | Previous Version | Text Only | Print | Product List | Glossary On
Versions: 1 2 3 4 5 6 7 8 9 10 11 12 13 14 15 16 17 18 19 20 21 22 23 24 25 26 27 28 29 30 31 32 33 34 35 36 37 38 39 40 41 42 43 44 45 46 47 48 49 50
000
ASUS43 KTOP 030608
RWRKS

WEATHER ROUNDUP FOR KANSAS
NATIONAL WEATHER SERVICE GOODLAND KS
100 AM CDT MON AUG 03 2015

NOTE:  "FAIR" INDICATES FEW OR NO CLOUDS BELOW 12,000 FEET WITH NO
SIGNIFICANT WEATHER AND/OR OBSTRUCTIONS TO VISIBILITY.

KSZ001>006-013>018-027>032-041>047-030700-
NORTHWEST KANSAS

CITY           SKY/WX    TMP DP  RH WIND       PRES   REMARKS
GOODLAND       CLEAR     72  55  55 S12       30.01S
6HR MIN TEMP:  68; 6HR MAX TEMP:  93;

HAYS           MOCLDY    75  64  69 S7        29.92F
HILL CITY      CLEAR     71  63  75 W3        29.92S
6HR MIN TEMP:  71; 6HR MAX TEMP:  95;

RUSSELL        MOCLDY    77  69  76 SW8       29.90S
6HR MIN TEMP:  77; 6HR MAX TEMP:  93;

$$

KSZ061>065-074>080-084>089-030700-
SOUTHWEST KANSAS

CITY           SKY/WX    TMP DP  RH WIND       PRES   REMARKS
DODGE CITY     MOCLDY    74  66  76 S12       29.96F
6HR MIN TEMP:  72; 6HR MAX TEMP:  90;

ELKHART          N/A     72  64  76 SE10        N/A
GARDEN CITY    CLOUDY    74  66  76 SE7       29.97F
6HR MIN TEMP:  74; 6HR MAX TEMP:  91;

GREAT BEND     MOCLDY    75  66  73 S9        29.92S
LIBERAL        PTCLDY    73  63  68 SE5       29.99R
PRATT          MOCLDY    77  64  65 CALM      29.95S
$$

KSZ066>073-081>083-090>101-030700-
SOUTHEAST KANSAS

CITY           SKY/WX    TMP DP  RH WIND       PRES   REMARKS
CHANUTE        PTCLDY    71  65  81 S7        29.92S
6HR MIN TEMP:  71; 6HR MAX TEMP:  89;

COFFEYVILLE    CLEAR     71  66  84 S3        29.92S
6HR MIN TEMP:  71; 6HR MAX TEMP:  90;

HUTCHINSON     MOCLDY    77  68  73 S7        29.92S
6HR MIN TEMP:  76; 6HR MAX TEMP:  90;

MEDICINE LODGE   N/A     76  68  76 SE5       29.92S
NEWTON         MOCLDY    73  64  73 S9        29.95S
PARSONS        PTCLDY    69  67  93 CALM      29.93S
6HR MIN TEMP:  69; 6HR MAX TEMP:  90;

WICHITA INTL   MOCLDY    73  67  81 S6        29.93R
6HR MIN TEMP:  73; 6HR MAX TEMP:  88;

WICHITA JABRA  PTCLDY    74  67  78 S8        29.92S
6HR MIN TEMP:  74; 6HR MAX TEMP:  88;

WICHITA MCCONL CLEAR     75  67  76 S6        29.93R
WINFIELD       CLEAR     75  67  76 SE5       29.93S
6HR MIN TEMP:  73; 6HR MAX TEMP:  86;

$$

KSZ007>012-019>026-033>040-048>060-102>105-030700-
NORTHEAST KANSAS

CITY           SKY/WX    TMP DP  RH WIND       PRES   REMARKS
CONCORDIA      PTCLDY    78  69  73 SW7       29.88S
6HR MIN TEMP:  78; 6HR MAX TEMP:  93;

EMPORIA        PTCLDY    74  68  81 S10       29.90S
6HR MIN TEMP:  73; 6HR MAX TEMP:  89;

LAWRENCE       CLEAR     76  69  79 CALM      29.89R
6HR MIN TEMP:  75; 6HR MAX TEMP:  90;

MANHATTAN      PTCLDY    78  70  76 SW8       29.88R
6HR MIN TEMP:  77; 6HR MAX TEMP:  93;

MARYSVILLE     PTCLDY    77  70  78 SW6       29.87R
OLATHE IND     CLEAR     76  65  68 S6        29.92R
6HR MIN TEMP:  76; 6HR MAX TEMP:  91;

OLATHE EXE     CLEAR     76  65  68 S5        29.91R
6HR MIN TEMP:  75; 6HR MAX TEMP:  89;

SALINA         PTCLDY    77  70  79 S8        29.89S
6HR MIN TEMP:  77; 6HR MAX TEMP:  92;

TOPEKA BILLARD PTCLDY    79  69  71 SW5       29.87S
6HR MIN TEMP:  79; 6HR MAX TEMP:  90;

TOPEKA FORBES  PTCLDY    77  68  73 S7        29.88S
6HR MIN TEMP:  77; 6HR MAX TEMP:  90;

$$



USA.gov is the U.S. government's official web portal to all federal, state and local government web resources and services.